Time,TemperatureF,DewpointF,PressureIn,WindDirection,WindDirectionDegrees,WindSpeedMPH,WindSpeedGustMPH,Humidity,HourlyPrecipIn,Conditions,Clouds,dailyrainin,SoftwareType,DateUTC
2013-10-13 00:03:00,46.2,37.7,30.15,WSW,248,0.0,0.0,72,0.00,,,0.00,Wunderground v.1.15,2013-10-13 05:03:00,
2013-10-13 00:08:00,46.1,37.6,30.15,WSW,248,0.0,0.0,72,0.00,,,0.00,Wunderground v.1.15,2013-10-13 05:08:00,
2013-10-13 00:14:00,45.9,37.4,30.15,WSW,248,0.0,0.0,72,0.00,,,0.00,Wunderground v.1.15,2013-10-13 05:14:00,
2013-10-13 00:19:00,45.8,37.3,30.15,WSW,248,0.0,0.0,72,0.00,,,0.00,Wunderground v.1.15,2013-10-13 05:19:00,
2013-10-13 00:25:00,45.7,37.5,30.15,WSW,248,0.0,0.0,73,0.00,,,0.00,Wunderground v.1.15,2013-10-13 05:25:00,
2013-10-13 00:30:00,45.7,37.5,30.15,WSW,248,0.0,0.0,73,0.00,,,0.00,Wunderground v.1.15,2013-10-13 05:30:00,
2013-10-13 00:36:00,45.6,37.8,30.16,WSW,248,0.0,0.0,74,0.00,,,0.00,Wunderground v.1.15,2013-10-13 05:36:00,
2013-10-13 00:41:00,45.6,37.8,30.16,WSW,248,0.0,0.0,74,0.00,,,0.00,Wunderground v.1.15,2013-10-13 05:41:00,
2013-10-13 00:47:00,45.6,38.1,30.16,WSW,248,0.0,0.0,75,0.00,,,0.00,Wunderground v.1.15,2013-10-13 05:47:00,
2013-10-13 00:52:00,45.7,37.9,30.16,SSW,213,0.0,0.0,74,0.00,,,0.00,Wunderground v.1.15,2013-10-13 05:52:00,
2013-10-13 00:58:00,45.8,38.0,30.16,South,176,0.0,0.0,74,0.00,,,0.00,Wunderground v.1.15,2013-10-13 05:58:00,
2013-10-13 01:03:00,46.0,38.2,30.16,West,263,0.0,0.0,74,0.00,,,0.00,Wunderground v.1.15,2013-10-13 06:03:00,
2013-10-13 01:08:00,46.2,38.0,30.17,WSW,250,0.0,0.0,73,0.00,,,0.00,Wunderground v.1.15,2013-10-13 06:08:00,
2013-10-13 01:14:00,46.3,38.5,30.17,West,274,0.0,0.0,74,0.00,,,0.00,Wunderground v.1.15,2013-10-13 06:14:00,
2013-10-13 01:20:00,46.4,38.2,30.17,WNW,300,0.0,0.0,73,0.00,,,0.00,Wunderground v.1.15,2013-10-13 06:20:00,
2013-10-13 01:26:00,46.4,38.2,30.17,WNW,294,0.0,0.0,73,0.00,,,0.00,Wunderground v.1.15,2013-10-13 06:26:00,
2013-10-13 01:31:00,46.2,38.4,30.17,WNW,287,0.0,0.0,74,0.00,,,0.00,Wunderground v.1.15,2013-10-13 06:31:00,
2013-10-13 01:37:00,46.1,38.3,30.17,WNW,290,0.0,0.0,74,0.00,,,0.00,Wunderground v.1.15,2013-10-13 06:37:00,
2013-10-13 01:43:00,46.0,38.5,30.17,SW,218,0.0,0.0,75,0.00,,,0.00,Wunderground v.1.15,2013-10-13 06:43:00,
2013-10-13 01:48:00,45.9,38.4,30.17,WSW,238,0.0,0.0,75,0.00,,,0.00,Wunderground v.1.15,2013-10-13 06:48:00,
2013-10-13 01:54:00,45.9,38.4,30.18,NNW,336,0.0,0.0,75,0.00,,,0.00,Wunderground v.1.15,2013-10-13 06:54:00,
2013-10-13 02:00:00,45.7,38.6,30.17,SE,130,0.0,0.0,76,0.00,,,0.00,Wunderground v.1.15,2013-10-13 07:00:00,
2013-10-13 02:05:00,45.6,38.5,30.18,WSW,257,0.0,0.0,76,0.00,,,0.00,Wunderground v.1.15,2013-10-13 07:05:00,
2013-10-13 02:10:00,45.5,38.4,30.18,South,187,0.0,0.0,76,0.00,,,0.00,Wunderground v.1.15,2013-10-13 07:10:00,
2013-10-13 02:15:00,45.4,38.6,30.18,South,187,0.0,0.0,77,0.00,,,0.00,Wunderground v.1.15,2013-10-13 07:15:00,
2013-10-13 02:20:00,45.1,38.3,30.18,South,187,0.0,0.0,77,0.00,,,0.00,Wunderground v.1.15,2013-10-13 07:20:00,
2013-10-13 02:25:00,45.0,38.2,30.18,South,188,0.0,0.0,77,0.00,,,0.00,Wunderground v.1.15,2013-10-13 07:25:00,
2013-10-13 02:30:00,44.8,38.4,30.18,WSW,250,0.0,0.0,78,0.00,,,0.00,Wunderground v.1.15,2013-10-13 07:30:00,
2013-10-13 02:35:00,44.7,38.3,30.19,WSW,252,0.0,0.0,78,0.00,,,0.00,Wunderground v.1.15,2013-10-13 07:35:00,
2013-10-13 02:40:00,44.5,38.4,30.19,WSW,252,0.0,0.0,79,0.00,,,0.00,Wunderground v.1.15,2013-10-13 07:40:00,
2013-10-13 02:45:00,44.4,38.3,30.18,WSW,252,0.0,0.0,79,0.00,,,0.00,Wunderground v.1.15,2013-10-13 07:45:00,
2013-10-13 02:50:00,44.3,38.5,30.18,West,277,0.0,0.0,80,0.00,,,0.00,Wunderground v.1.15,2013-10-13 07:50:00,
2013-10-13 02:55:00,44.3,38.5,30.18,SSW,196,0.0,0.0,80,0.00,,,0.00,Wunderground v.1.15,2013-10-13 07:55:00,
2013-10-13 03:00:00,44.2,38.4,30.18,ENE,63,0.0,0.0,80,0.00,,,0.00,Wunderground v.1.15,2013-10-13 08:00:00,
2013-10-13 03:05:00,44.3,38.5,30.18,WNW,287,0.0,0.0,80,0.00,,,0.00,Wunderground v.1.15,2013-10-13 08:05:00,
2013-10-13 03:10:00,44.6,38.5,30.18,SW,214,0.0,0.0,79,0.00,,,0.00,Wunderground v.1.15,2013-10-13 08:10:00,
2013-10-13 03:15:00,44.8,38.7,30.18,WNW,288,0.0,0.0,79,0.00,,,0.00,Wunderground v.1.15,2013-10-13 08:15:00,
2013-10-13 03:20:00,45.0,38.9,30.19,WNW,285,0.0,0.0,79,0.00,,,0.00,Wunderground v.1.15,2013-10-13 08:20:00,
2013-10-13 03:25:00,45.1,39.0,30.19,East,96,0.0,0.0,79,0.00,,,0.00,Wunderground v.1.15,2013-10-13 08:25:00,
2013-10-13 03:30:00,45.0,38.9,30.19,WNW,282,0.0,0.0,79,0.00,,,0.00,Wunderground v.1.15,2013-10-13 08:30:00,
2013-10-13 03:35:00,44.9,38.8,30.20,SE,145,0.0,0.0,79,0.00,,,0.00,Wunderground v.1.15,2013-10-13 08:35:00,
2013-10-13 03:40:00,44.7,38.6,30.20,WNW,293,0.0,0.0,79,0.00,,,0.00,Wunderground v.1.15,2013-10-13 08:40:00,
2013-10-13 03:45:00,44.6,38.8,30.20,NW,315,0.0,0.0,80,0.00,,,0.00,Wunderground v.1.15,2013-10-13 08:45:00,
2013-10-13 03:50:00,44.4,38.9,30.20,NW,311,0.0,0.0,81,0.00,,,0.00,Wunderground v.1.15,2013-10-13 08:50:00,
2013-10-13 03:55:00,44.3,38.8,30.21,NW,311,0.0,0.0,81,0.00,,,0.00,Wunderground v.1.15,2013-10-13 08:55:00,
2013-10-13 04:00:00,44.2,38.7,30.21,West,267,0.0,0.0,81,0.00,,,0.00,Wunderground v.1.15,2013-10-13 09:00:00,
2013-10-13 04:05:00,44.1,38.6,30.21,WSW,252,0.0,0.0,81,0.00,,,0.00,Wunderground v.1.15,2013-10-13 09:05:00,
2013-10-13 04:10:00,44.0,38.9,30.22,WSW,253,0.0,0.0,82,0.00,,,0.00,Wunderground v.1.15,2013-10-13 09:10:00,
2013-10-13 04:15:00,43.9,38.8,30.22,SE,132,0.0,0.0,82,0.00,,,0.00,Wunderground v.1.15,2013-10-13 09:15:00,
2013-10-13 04:20:00,43.7,38.6,30.23,West,267,0.0,0.0,82,0.00,,,0.00,Wunderground v.1.15,2013-10-13 09:20:00,
2013-10-13 04:25:00,43.6,38.8,30.23,West,279,0.0,0.0,83,0.00,,,0.00,Wunderground v.1.15,2013-10-13 09:25:00,
2013-10-13 04:30:00,43.6,38.8,30.23,NW,311,0.0,0.0,83,0.00,,,0.00,Wunderground v.1.15,2013-10-13 09:30:00,
2013-10-13 04:35:00,43.6,38.8,30.23,NW,311,0.0,0.0,83,0.00,,,0.00,Wunderground v.1.15,2013-10-13 09:35:00,
2013-10-13 04:40:00,43.4,38.6,30.23,West,275,0.0,0.0,83,0.00,,,0.00,Wunderground v.1.15,2013-10-13 09:40:00,
2013-10-13 04:45:00,43.4,38.6,30.23,West,275,0.0,0.0,83,0.00,,,0.00,Wunderground v.1.15,2013-10-13 09:45:00,
2013-10-13 04:50:00,43.3,38.8,30.23,West,275,0.0,0.0,84,0.00,,,0.00,Wunderground v.1.15,2013-10-13 09:50:00,
2013-10-13 04:55:00,43.3,38.8,30.24,WNW,292,0.0,0.0,84,0.00,,,0.00,Wunderground v.1.15,2013-10-13 09:55:00,
2013-10-13 05:00:00,43.3,38.8,30.24,SSW,203,0.0,0.0,84,0.00,,,0.00,Wunderground v.1.15,2013-10-13 10:00:00,
2013-10-13 05:05:00,43.2,38.7,30.24,WNW,289,0.0,0.0,84,0.00,,,0.00,Wunderground v.1.15,2013-10-13 10:05:00,
2013-10-13 05:11:00,43.2,39.0,30.25,WNW,291,0.0,0.0,85,0.00,,,0.00,Wunderground v.1.15,2013-10-13 10:11:00,
2013-10-13 05:16:00,43.2,39.0,30.25,NW,324,0.0,0.0,85,0.00,,,0.00,Wunderground v.1.15,2013-10-13 10:16:00,
2013-10-13 05:21:00,43.1,38.9,30.25,West,259,0.0,0.0,85,0.00,,,0.00,Wunderground v.1.15,2013-10-13 10:21:00,
2013-10-13 05:26:00,42.9,38.7,30.25,SSW,192,0.0,0.0,85,0.00,,,0.00,Wunderground v.1.15,2013-10-13 10:26:00,
2013-10-13 05:31:00,42.8,38.6,30.25,WSW,249,0.0,0.0,85,0.00,,,0.00,Wunderground v.1.15,2013-10-13 10:31:00,
2013-10-13 05:36:00,42.7,38.5,30.25,WSW,249,0.0,0.0,85,0.00,,,0.00,Wunderground v.1.15,2013-10-13 10:36:00,
2013-10-13 05:41:00,42.6,38.4,30.26,SSE,163,0.0,0.0,85,0.00,,,0.00,Wunderground v.1.15,2013-10-13 10:41:00,
2013-10-13 05:46:00,42.6,38.7,30.26,SSE,163,0.0,0.0,86,0.00,,,0.00,Wunderground v.1.15,2013-10-13 10:46:00,
2013-10-13 05:51:00,42.5,38.6,30.26,WSW,252,0.0,0.0,86,0.00,,,0.00,Wunderground v.1.15,2013-10-13 10:51:00,
2013-10-13 05:56:00,42.4,38.5,30.26,WSW,254,0.0,0.0,86,0.00,,,0.00,Wunderground v.1.15,2013-10-13 10:56:00,
2013-10-13 06:01:00,42.3,38.4,30.26,NNW,340,0.0,0.0,86,0.00,,,0.00,Wunderground v.1.15,2013-10-13 11:01:00,
2013-10-13 06:06:00,42.3,38.4,30.26,NNW,340,0.0,0.0,86,0.00,,,0.00,Wunderground v.1.15,2013-10-13 11:06:00,
2013-10-13 06:11:00,42.2,38.3,30.27,NNW,340,0.0,0.0,86,0.00,,,0.00,Wunderground v.1.15,2013-10-13 11:11:00,
2013-10-13 06:16:00,42.0,38.4,30.27,NNW,340,0.0,0.0,87,0.00,,,0.00,Wunderground v.1.15,2013-10-13 11:16:00,
2013-10-13 06:21:00,41.9,38.3,30.27,NNW,340,0.0,0.0,87,0.00,,,0.00,Wunderground v.1.15,2013-10-13 11:21:00,
2013-10-13 06:26:00,41.8,38.2,30.28,NNW,340,0.0,0.0,87,0.00,,,0.00,Wunderground v.1.15,2013-10-13 11:26:00,
2013-10-13 06:31:00,41.8,38.5,30.28,NNW,342,0.0,0.0,88,0.00,,,0.00,Wunderground v.1.15,2013-10-13 11:31:00,
2013-10-13 06:36:00,41.8,38.5,30.28,NW,326,0.0,0.0,88,0.00,,,0.00,Wunderground v.1.15,2013-10-13 11:36:00,
2013-10-13 06:41:00,41.8,38.5,30.28,NW,326,0.0,0.0,88,0.00,,,0.00,Wunderground v.1.15,2013-10-13 11:41:00,
2013-10-13 06:46:00,41.6,38.0,30.28,NW,326,0.0,0.0,87,0.00,,,0.00,Wunderground v.1.15,2013-10-13 11:46:00,
2013-10-13 06:51:00,41.5,38.2,30.29,NW,326,0.0,0.0,88,0.00,,,0.00,Wunderground v.1.15,2013-10-13 11:51:00,
2013-10-13 06:56:00,41.4,38.1,30.29,NW,326,0.0,0.0,88,0.00,,,0.00,Wunderground v.1.15,2013-10-13 11:56:00,
2013-10-13 07:01:00,41.3,38.0,30.29,NW,326,0.0,0.0,88,0.00,,,0.00,Wunderground v.1.15,2013-10-13 12:01:00,
2013-10-13 07:06:00,41.1,38.1,30.30,NW,326,0.0,0.0,89,0.00,,,0.00,Wunderground v.1.15,2013-10-13 12:06:00,
2013-10-13 07:11:00,41.0,38.0,30.30,NW,326,0.0,0.0,89,0.00,,,0.00,Wunderground v.1.15,2013-10-13 12:11:00,
2013-10-13 07:16:00,40.9,37.9,30.30,NW,326,0.0,0.0,89,0.00,,,0.00,Wunderground v.1.15,2013-10-13 12:16:00,
2013-10-13 07:21:00,40.8,37.8,30.30,NW,326,0.0,0.0,89,0.00,,,0.00,Wunderground v.1.15,2013-10-13 12:21:00,
2013-10-13 07:26:00,40.7,37.7,30.30,NW,326,0.0,0.0,89,0.00,,,0.00,Wunderground v.1.15,2013-10-13 12:26:00,
2013-10-13 07:31:00,40.6,37.9,30.31,NW,326,0.0,0.0,90,0.00,,,0.00,Wunderground v.1.15,2013-10-13 12:31:00,
2013-10-13 07:36:00,40.5,37.8,30.31,NW,326,0.0,0.0,90,0.00,,,0.00,Wunderground v.1.15,2013-10-13 12:36:00,
2013-10-13 07:41:00,40.4,37.7,30.31,NW,326,0.0,0.0,90,0.00,,,0.00,Wunderground v.1.15,2013-10-13 12:41:00,
2013-10-13 07:46:00,40.4,38.0,30.31,NW,326,0.0,0.0,91,0.00,,,0.00,Wunderground v.1.15,2013-10-13 12:46:00,
2013-10-13 07:51:00,40.4,38.0,30.32,NW,326,0.0,0.0,91,0.00,,,0.00,Wunderground v.1.15,2013-10-13 12:51:00,
2013-10-13 07:56:00,40.4,38.0,30.32,NW,326,0.0,0.0,91,0.00,,,0.00,Wunderground v.1.15,2013-10-13 12:56:00,
2013-10-13 08:01:00,40.4,38.0,30.33,NW,326,0.0,0.0,91,0.00,,,0.00,Wunderground v.1.15,2013-10-13 13:01:00,
2013-10-13 08:06:00,40.5,38.1,30.33,WNW,292,0.0,0.0,91,0.00,,,0.00,Wunderground v.1.15,2013-10-13 13:06:00,
2013-10-13 08:11:00,40.6,38.5,30.33,WNW,292,0.0,0.0,92,0.00,,,0.00,Wunderground v.1.15,2013-10-13 13:11:00,
2013-10-13 08:16:00,40.8,38.4,30.33,WNW,292,0.0,0.0,91,0.00,,,0.00,Wunderground v.1.15,2013-10-13 13:16:00,
2013-10-13 08:21:00,41.0,38.6,30.34,WNW,290,0.0,0.0,91,0.00,,,0.00,Wunderground v.1.15,2013-10-13 13:21:00,
2013-10-13 08:26:00,41.2,38.8,30.34,WNW,290,0.0,0.0,91,0.00,,,0.00,Wunderground v.1.15,2013-10-13 13:26:00,
2013-10-13 08:31:00,41.5,39.1,30.34,South,172,0.0,0.0,91,0.00,,,0.00,Wunderground v.1.15,2013-10-13 13:31:00,
2013-10-13 08:36:00,41.9,39.5,30.34,South,172,0.0,0.0,91,0.00,,,0.00,Wunderground v.1.15,2013-10-13 13:36:00,
2013-10-13 08:41:00,42.3,39.6,30.34,SSE,162,0.0,0.0,90,0.00,,,0.00,Wunderground v.1.15,2013-10-13 13:41:00,
2013-10-13 08:46:00,42.6,39.6,30.35,SSE,163,0.0,0.0,89,0.00,,,0.00,Wunderground v.1.15,2013-10-13 13:46:00,
2013-10-13 08:51:00,43.0,40.0,30.35,NW,309,0.0,0.0,89,0.00,,,0.00,Wunderground v.1.15,2013-10-13 13:51:00,
2013-10-13 08:56:00,43.4,40.1,30.35,WNW,296,0.0,0.0,88,0.00,,,0.00,Wunderground v.1.15,2013-10-13 13:56:00,
2013-10-13 09:01:00,43.8,40.2,30.35,West,272,0.0,0.0,87,0.00,,,0.00,Wunderground v.1.15,2013-10-13 14:01:00,
2013-10-13 09:06:00,44.4,40.5,30.35,WNW,303,0.0,0.0,86,0.00,,,0.00,Wunderground v.1.15,2013-10-13 14:06:00,
2013-10-13 09:11:00,44.9,40.7,30.35,SSE,163,0.0,0.0,85,0.00,,,0.00,Wunderground v.1.15,2013-10-13 14:11:00,
2013-10-13 09:16:00,45.2,41.0,30.36,WNW,284,0.0,0.0,85,0.00,,,0.00,Wunderground v.1.15,2013-10-13 14:16:00,
2013-10-13 09:21:00,45.6,41.0,30.36,WNW,303,0.0,0.0,84,0.00,,,0.00,Wunderground v.1.15,2013-10-13 14:21:00,
2013-10-13 09:26:00,46.0,41.1,30.36,SW,219,0.0,0.0,83,0.00,,,0.00,Wunderground v.1.15,2013-10-13 14:26:00,
2013-10-13 09:31:00,46.4,41.5,30.36,NNW,342,0.0,0.0,83,0.00,,,0.00,Wunderground v.1.15,2013-10-13 14:31:00,
2013-10-13 09:36:00,46.9,41.4,30.36,NNW,333,0.0,0.0,81,0.00,,,0.00,Wunderground v.1.15,2013-10-13 14:36:00,
2013-10-13 09:41:00,47.5,42.0,30.37,WNW,301,0.0,0.0,81,0.00,,,0.00,Wunderground v.1.15,2013-10-13 14:41:00,
2013-10-13 09:46:00,48.0,42.1,30.37,SW,233,0.0,0.0,80,0.00,,,0.00,Wunderground v.1.15,2013-10-13 14:46:00,
2013-10-13 09:51:00,48.3,42.1,30.37,NW,315,0.0,0.0,79,0.00,,,0.00,Wunderground v.1.15,2013-10-13 14:51:00,
2013-10-13 09:56:00,48.7,42.5,30.37,NW,304,0.0,0.0,79,0.00,,,0.00,Wunderground v.1.15,2013-10-13 14:56:00,
2013-10-13 10:01:00,49.3,42.1,30.37,West,280,0.0,0.0,76,0.00,,,0.00,Wunderground v.1.15,2013-10-13 15:01:00,
2013-10-13 10:06:00,49.5,41.9,30.38,WNW,302,0.0,0.0,75,0.00,,,0.00,Wunderground v.1.15,2013-10-13 15:06:00,
2013-10-13 10:11:00,49.7,41.7,30.38,WNW,290,0.0,0.0,74,0.00,,,0.00,Wunderground v.1.15,2013-10-13 15:11:00,
2013-10-13 10:16:00,49.9,41.6,30.38,WNW,295,0.0,0.0,73,0.00,,,0.00,Wunderground v.1.15,2013-10-13 15:16:00,
2013-10-13 10:21:00,50.2,41.9,30.38,NW,314,0.0,0.0,73,0.00,,,0.00,Wunderground v.1.15,2013-10-13 15:21:00,
2013-10-13 10:26:00,50.6,41.5,30.38,NW,306,0.0,0.0,71,0.00,,,0.00,Wunderground v.1.15,2013-10-13 15:26:00,
2013-10-13 10:31:00,50.7,41.6,30.38,NW,309,0.0,0.0,71,0.00,,,0.00,Wunderground v.1.15,2013-10-13 15:31:00,
2013-10-13 10:36:00,51.2,41.7,30.38,North,350,0.0,0.0,70,0.00,,,0.00,Wunderground v.1.15,2013-10-13 15:36:00,
2013-10-13 10:41:00,51.4,41.2,30.38,WNW,284,0.0,0.0,68,0.00,,,0.00,Wunderground v.1.15,2013-10-13 15:41:00,
2013-10-13 10:46:00,51.7,42.2,30.38,SSW,200,0.0,0.0,70,0.00,,,0.00,Wunderground v.1.15,2013-10-13 15:46:00,
2013-10-13 10:51:00,52.2,41.6,30.38,SSW,195,0.0,0.0,67,0.00,,,0.00,Wunderground v.1.15,2013-10-13 15:51:00,
2013-10-13 10:56:00,52.8,41.7,30.38,SW,232,0.0,0.0,66,0.00,,,0.00,Wunderground v.1.15,2013-10-13 15:56:00,
2013-10-13 11:01:00,52.9,41.0,30.38,WNW,290,0.0,0.0,64,0.00,,,0.00,Wunderground v.1.15,2013-10-13 16:01:00,
2013-10-13 11:06:00,53.2,40.5,30.38,West,267,0.0,0.0,62,0.00,,,0.00,Wunderground v.1.15,2013-10-13 16:06:00,
2013-10-13 11:11:00,53.5,39.9,30.38,West,281,0.0,0.0,60,0.00,,,0.00,Wunderground v.1.15,2013-10-13 16:11:00,
2013-10-13 11:16:00,53.1,38.7,30.39,NW,320,0.0,0.0,58,0.00,,,0.00,Wunderground v.1.15,2013-10-13 16:16:00,
2013-10-13 11:21:00,53.2,39.7,30.38,WNW,289,0.0,0.0,60,0.00,,,0.00,Wunderground v.1.15,2013-10-13 16:21:00,
2013-10-13 11:26:00,53.9,39.5,30.38,NNW,346,0.0,0.0,58,0.00,,,0.00,Wunderground v.1.15,2013-10-13 16:26:00,
2013-10-13 11:31:00,53.8,39.8,30.38,WSW,251,0.0,0.0,59,0.00,,,0.00,Wunderground v.1.15,2013-10-13 16:31:00,
2013-10-13 11:37:00,54.1,40.1,30.39,NNW,329,0.0,0.0,59,0.00,,,0.00,Wunderground v.1.15,2013-10-13 16:37:00,
2013-10-13 11:42:00,54.0,39.1,30.38,WNW,301,0.0,0.0,57,0.00,,,0.00,Wunderground v.1.15,2013-10-13 16:42:00,
2013-10-13 11:47:00,54.3,40.3,30.39,WNW,301,0.0,0.0,59,0.00,,,0.00,Wunderground v.1.15,2013-10-13 16:47:00,
2013-10-13 11:52:00,54.7,39.3,30.39,NNE,15,0.0,0.0,56,0.00,,,0.00,Wunderground v.1.15,2013-10-13 16:52:00,
2013-10-13 11:57:00,54.8,39.8,30.39,NW,319,0.0,0.0,57,0.00,,,0.00,Wunderground v.1.15,2013-10-13 16:57:00,
2013-10-13 12:02:00,54.7,38.4,30.39,NW,304,0.0,0.0,54,0.00,,,0.00,Wunderground v.1.15,2013-10-13 17:02:00,
2013-10-13 12:07:00,54.4,38.6,30.39,NNW,344,0.0,0.0,55,0.00,,,0.00,Wunderground v.1.15,2013-10-13 17:07:00,
2013-10-13 12:12:00,54.9,38.6,30.39,WSW,255,0.0,0.0,54,0.00,,,0.00,Wunderground v.1.15,2013-10-13 17:12:00,
2013-10-13 12:17:00,54.8,38.5,30.39,NNE,16,0.0,0.0,54,0.00,,,0.00,Wunderground v.1.15,2013-10-13 17:17:00,
2013-10-13 12:22:00,55.1,38.7,30.39,NNW,332,0.0,0.0,54,0.00,,,0.00,Wunderground v.1.15,2013-10-13 17:22:00,
2013-10-13 12:27:00,55.6,38.2,30.39,SW,222,0.0,0.0,52,0.00,,,0.00,Wunderground v.1.15,2013-10-13 17:27:00,
2013-10-13 12:32:00,56.1,38.2,30.39,NE,34,0.0,0.0,51,0.00,,,0.00,Wunderground v.1.15,2013-10-13 17:32:00,
2013-10-13 12:37:00,55.7,37.3,30.39,West,273,0.0,0.0,50,0.00,,,0.00,Wunderground v.1.15,2013-10-13 17:37:00,
2013-10-13 12:42:00,55.6,38.2,30.39,WSW,257,0.0,0.0,52,0.00,,,0.00,Wunderground v.1.15,2013-10-13 17:42:00,
2013-10-13 12:47:00,55.9,38.5,30.39,NNW,328,0.0,0.0,52,0.00,,,0.00,Wunderground v.1.15,2013-10-13 17:47:00,
2013-10-13 12:52:00,56.6,38.2,30.38,SW,215,0.0,0.0,50,0.00,,,0.00,Wunderground v.1.15,2013-10-13 17:52:00,
2013-10-13 12:57:00,56.9,38.4,30.38,WNW,288,0.0,0.0,50,0.00,,,0.00,Wunderground v.1.15,2013-10-13 17:57:00,
2013-10-13 13:02:00,56.5,37.6,30.38,North,355,0.0,0.0,49,0.00,,,0.00,Wunderground v.1.15,2013-10-13 18:02:00,
2013-10-13 13:07:00,55.9,37.0,30.38,WNW,296,0.0,0.0,49,0.00,,,0.00,Wunderground v.1.15,2013-10-13 18:07:00,
2013-10-13 13:12:00,56.0,38.6,30.38,WNW,292,0.0,0.0,52,0.00,,,0.00,Wunderground v.1.15,2013-10-13 18:12:00,
2013-10-13 13:17:00,56.3,37.9,30.38,WNW,286,0.0,0.0,50,0.00,,,0.00,Wunderground v.1.15,2013-10-13 18:17:00,
2013-10-13 13:22:00,56.7,38.8,30.38,WSW,256,0.0,0.0,51,0.00,,,0.00,Wunderground v.1.15,2013-10-13 18:22:00,
2013-10-13 13:27:00,56.9,37.4,30.38,SW,223,0.0,0.0,48,0.00,,,0.00,Wunderground v.1.15,2013-10-13 18:27:00,
2013-10-13 13:32:00,57.3,38.3,30.38,North,5,0.0,0.0,49,0.00,,,0.00,Wunderground v.1.15,2013-10-13 18:32:00,
2013-10-13 13:37:00,57.6,38.0,30.38,WSW,239,0.0,0.0,48,0.00,,,0.00,Wunderground v.1.15,2013-10-13 18:37:00,
2013-10-13 13:42:00,57.6,37.5,30.38,WNW,285,0.0,0.0,47,0.00,,,0.00,Wunderground v.1.15,2013-10-13 18:42:00,
2013-10-13 13:47:00,57.7,38.7,30.38,NNW,328,0.0,0.0,49,0.00,,,0.00,Wunderground v.1.15,2013-10-13 18:47:00,
2013-10-13 13:52:00,58.1,38.5,30.37,South,186,0.0,0.0,48,0.00,,,0.00,Wunderground v.1.15,2013-10-13 18:52:00,
2013-10-13 13:57:00,58.2,38.1,30.37,WNW,288,0.0,0.0,47,0.00,,,0.00,Wunderground v.1.15,2013-10-13 18:57:00,
2013-10-13 14:02:00,57.5,36.9,30.37,NNE,13,0.0,0.0,46,0.00,,,0.00,Wunderground v.1.15,2013-10-13 19:02:00,
2013-10-13 14:07:00,57.2,36.0,30.37,NNW,344,0.0,0.0,45,0.00,,,0.00,Wunderground v.1.15,2013-10-13 19:07:00,
2013-10-13 14:12:00,56.9,36.9,30.37,WNW,284,0.0,0.0,47,0.00,,,0.00,Wunderground v.1.15,2013-10-13 19:12:00,
2013-10-13 14:17:00,57.4,37.9,30.37,NW,313,0.0,0.0,48,0.00,,,0.00,Wunderground v.1.15,2013-10-13 19:17:00,
2013-10-13 14:22:00,57.8,37.7,30.37,West,280,0.0,0.0,47,0.00,,,0.00,Wunderground v.1.15,2013-10-13 19:22:00,
2013-10-13 14:28:00,57.7,38.1,30.36,West,273,0.0,0.0,48,0.00,,,0.00,Wunderground v.1.15,2013-10-13 19:28:00,
2013-10-13 14:33:00,58.4,36.6,30.36,NW,313,0.0,0.0,44,0.00,,,0.00,Wunderground v.1.15,2013-10-13 19:33:00,
2013-10-13 14:38:00,58.6,37.9,30.36,NW,306,0.0,0.0,46,0.00,,,0.00,Wunderground v.1.15,2013-10-13 19:38:00,
2013-10-13 14:43:00,58.6,36.2,30.36,WNW,285,0.0,0.0,43,0.00,,,0.00,Wunderground v.1.15,2013-10-13 19:43:00,
2013-10-13 14:48:00,58.6,37.3,30.36,West,267,0.0,0.0,45,0.00,,,0.00,Wunderground v.1.15,2013-10-13 19:48:00,
2013-10-13 14:53:00,58.4,37.1,30.36,WNW,302,0.0,0.0,45,0.00,,,0.00,Wunderground v.1.15,2013-10-13 19:53:00,
2013-10-13 14:58:00,58.2,38.1,30.36,NW,309,0.0,0.0,47,0.00,,,0.00,Wunderground v.1.15,2013-10-13 19:58:00,
2013-10-13 15:03:00,58.3,38.1,30.36,South,185,0.0,0.0,47,0.00,,,0.00,Wunderground v.1.15,2013-10-13 20:03:00,
2013-10-13 15:08:00,58.9,37.6,30.36,NW,323,0.0,0.0,45,0.00,,,0.00,Wunderground v.1.15,2013-10-13 20:08:00,
2013-10-13 15:13:00,59.1,36.6,30.36,NW,311,0.0,0.0,43,0.00,,,0.00,Wunderground v.1.15,2013-10-13 20:13:00,
2013-10-13 15:18:00,58.9,36.4,30.36,WNW,303,0.0,0.0,43,0.00,,,0.00,Wunderground v.1.15,2013-10-13 20:18:00,
2013-10-13 15:23:00,58.8,37.5,30.36,NW,306,0.0,0.0,45,0.00,,,0.00,Wunderground v.1.15,2013-10-13 20:23:00,
2013-10-13 15:28:00,58.9,36.4,30.35,WSW,253,0.0,0.0,43,0.00,,,0.00,Wunderground v.1.15,2013-10-13 20:28:00,
2013-10-13 15:33:00,58.8,36.9,30.35,South,186,0.0,0.0,44,0.00,,,0.00,Wunderground v.1.15,2013-10-13 20:33:00,
2013-10-13 15:38:00,58.6,36.7,30.35,SSW,192,0.0,0.0,44,0.00,,,0.00,Wunderground v.1.15,2013-10-13 20:38:00,
2013-10-13 15:43:00,58.7,36.2,30.35,SSW,192,0.0,0.0,43,0.00,,,0.00,Wunderground v.1.15,2013-10-13 20:43:00,
2013-10-13 15:48:00,59.4,37.5,30.35,WNW,284,0.0,0.0,44,0.00,,,0.00,Wunderground v.1.15,2013-10-13 20:48:00,
2013-10-13 15:53:00,59.8,37.8,30.35,SE,136,0.0,0.0,44,0.00,,,0.00,Wunderground v.1.15,2013-10-13 20:53:00,
2013-10-13 15:58:00,60.2,37.0,30.36,WNW,295,0.0,0.0,42,0.00,,,0.00,Wunderground v.1.15,2013-10-13 20:58:00,
2013-10-13 16:03:00,59.7,37.2,30.36,South,189,0.0,0.0,43,0.00,,,0.00,Wunderground v.1.15,2013-10-13 21:03:00,
2013-10-13 16:08:00,59.7,37.2,30.36,South,189,0.0,0.0,43,0.00,,,0.00,Wunderground v.1.15,2013-10-13 21:08:00,
2013-10-13 16:13:00,59.7,37.2,30.36,NNW,347,0.0,0.0,43,0.00,,,0.00,Wunderground v.1.15,2013-10-13 21:13:00,
2013-10-13 16:18:00,59.0,35.9,30.36,NNW,330,0.0,0.0,42,0.00,,,0.00,Wunderground v.1.15,2013-10-13 21:18:00,
2013-10-13 16:23:00,58.7,36.8,30.36,NNW,335,0.0,0.0,44,0.00,,,0.00,Wunderground v.1.15,2013-10-13 21:23:00,
2013-10-13 16:28:00,58.6,36.2,30.36,NNW,348,0.0,0.0,43,0.00,,,0.00,Wunderground v.1.15,2013-10-13 21:28:00,
2013-10-13 16:33:00,58.3,37.0,30.37,NNW,339,0.0,0.0,45,0.00,,,0.00,Wunderground v.1.15,2013-10-13 21:33:00,
2013-10-13 16:38:00,58.2,37.5,30.37,NNW,338,0.0,0.0,46,0.00,,,0.00,Wunderground v.1.15,2013-10-13 21:38:00,
2013-10-13 16:43:00,58.2,36.4,30.37,NNW,339,0.0,0.0,44,0.00,,,0.00,Wunderground v.1.15,2013-10-13 21:43:00,
2013-10-13 16:49:00,58.3,37.6,30.37,NNW,339,0.0,0.0,46,0.00,,,0.00,Wunderground v.1.15,2013-10-13 21:49:00,
2013-10-13 16:54:00,58.2,36.9,30.37,NNW,338,0.0,0.0,45,0.00,,,0.00,Wunderground v.1.15,2013-10-13 21:54:00,
2013-10-13 16:59:00,57.9,37.8,30.37,West,265,0.0,0.0,47,0.00,,,0.00,Wunderground v.1.15,2013-10-13 21:59:00,
2013-10-13 17:04:00,57.7,37.0,30.37,West,267,0.0,0.0,46,0.00,,,0.00,Wunderground v.1.15,2013-10-13 22:04:00,
2013-10-13 17:09:00,57.4,36.2,30.37,NW,321,0.0,0.0,45,0.00,,,0.00,Wunderground v.1.15,2013-10-13 22:09:00,
2013-10-13 17:14:00,57.1,37.0,30.37,NW,321,0.0,0.0,47,0.00,,,0.00,Wunderground v.1.15,2013-10-13 22:14:00,
2013-10-13 17:19:00,56.8,36.2,30.37,NW,321,0.0,0.0,46,0.00,,,0.00,Wunderground v.1.15,2013-10-13 22:19:00,
2013-10-13 17:24:00,56.7,37.2,30.37,NW,312,0.0,0.0,48,0.00,,,0.00,Wunderground v.1.15,2013-10-13 22:24:00,
2013-10-13 17:29:00,56.3,36.8,30.37,NW,312,0.0,0.0,48,0.00,,,0.00,Wunderground v.1.15,2013-10-13 22:29:00,
2013-10-13 17:34:00,56.0,36.0,30.37,NW,312,0.0,0.0,47,0.00,,,0.00,Wunderground v.1.15,2013-10-13 22:34:00,
2013-10-13 17:39:00,55.7,36.3,30.37,NW,312,0.0,0.0,48,0.00,,,0.00,Wunderground v.1.15,2013-10-13 22:39:00,
2013-10-13 17:44:00,55.6,36.7,30.37,NW,312,0.0,0.0,49,0.00,,,0.00,Wunderground v.1.15,2013-10-13 22:44:00,
2013-10-13 17:49:00,55.4,37.1,30.37,NW,312,0.0,0.0,50,0.00,,,0.00,Wunderground v.1.15,2013-10-13 22:49:00,
2013-10-13 17:54:00,55.2,36.9,30.38,NW,312,0.0,0.0,50,0.00,,,0.00,Wunderground v.1.15,2013-10-13 22:54:00,
2013-10-13 17:59:00,54.9,37.6,30.38,NW,312,0.0,0.0,52,0.00,,,0.00,Wunderground v.1.15,2013-10-13 22:59:00,
2013-10-13 18:04:00,54.7,37.9,30.38,NW,312,0.0,0.0,53,0.00,,,0.00,Wunderground v.1.15,2013-10-13 23:04:00,
2013-10-13 18:09:00,54.3,37.5,30.38,NW,312,0.0,0.0,53,0.00,,,0.00,Wunderground v.1.15,2013-10-13 23:09:00,
2013-10-13 18:14:00,54.0,37.7,30.38,NW,312,0.0,0.0,54,0.00,,,0.00,Wunderground v.1.15,2013-10-13 23:14:00,
2013-10-13 18:19:00,53.6,37.3,30.38,NW,312,0.0,0.0,54,0.00,,,0.00,Wunderground v.1.15,2013-10-13 23:19:00,
2013-10-13 18:24:00,53.2,37.4,30.39,NW,312,0.0,0.0,55,0.00,,,0.00,Wunderground v.1.15,2013-10-13 23:24:00,
2013-10-13 18:29:00,52.8,36.6,30.39,NW,312,0.0,0.0,54,0.00,,,0.00,Wunderground v.1.15,2013-10-13 23:29:00,
2013-10-13 18:34:00,52.5,36.3,30.39,NW,312,0.0,0.0,54,0.00,,,0.00,Wunderground v.1.15,2013-10-13 23:34:00,
2013-10-13 18:39:00,52.2,36.0,30.39,NW,312,0.0,0.0,54,0.00,,,0.00,Wunderground v.1.15,2013-10-13 23:39:00,
2013-10-13 18:44:00,52.0,35.9,30.39,NW,312,0.0,0.0,54,0.00,,,0.00,Wunderground v.1.15,2013-10-13 23:44:00,
2013-10-13 18:49:00,51.8,35.7,30.39,NW,312,0.0,0.0,54,0.00,,,0.00,Wunderground v.1.15,2013-10-13 23:49:00,
2013-10-13 18:54:00,51.7,36.0,30.39,NW,312,0.0,0.0,55,0.00,,,0.00,Wunderground v.1.15,2013-10-13 23:54:00,
2013-10-13 18:59:00,51.6,35.5,30.39,NW,312,0.0,0.0,54,0.00,,,0.00,Wunderground v.1.15,2013-10-13 23:59:00,
2013-10-13 19:04:00,51.4,35.3,30.39,NW,312,0.0,0.0,54,0.00,,,0.00,Wunderground v.1.15,2013-10-14 00:04:00,
2013-10-13 19:09:00,51.3,34.7,30.39,NW,312,0.0,0.0,53,0.00,,,0.00,Wunderground v.1.15,2013-10-14 00:09:00,
2013-10-13 19:14:00,51.2,35.6,30.39,NW,312,0.0,0.0,55,0.00,,,0.00,Wunderground v.1.15,2013-10-14 00:14:00,
2013-10-13 19:19:00,50.9,34.8,30.39,NW,312,0.0,0.0,54,0.00,,,0.00,Wunderground v.1.15,2013-10-14 00:19:00,
2013-10-13 19:24:00,50.8,35.2,30.39,NW,312,0.0,0.0,55,0.00,,,0.00,Wunderground v.1.15,2013-10-14 00:24:00,
2013-10-13 19:29:00,50.6,35.0,30.39,NW,312,0.0,0.0,55,0.00,,,0.00,Wunderground v.1.15,2013-10-14 00:29:00,
2013-10-13 19:34:00,50.5,34.9,30.39,NW,312,0.0,0.0,55,0.00,,,0.00,Wunderground v.1.15,2013-10-14 00:34:00,
2013-10-13 19:39:00,50.4,35.3,30.39,NW,312,0.0,0.0,56,0.00,,,0.00,Wunderground v.1.15,2013-10-14 00:39:00,
2013-10-13 19:44:00,50.3,35.6,30.39,NW,312,0.0,0.0,57,0.00,,,0.00,Wunderground v.1.15,2013-10-14 00:44:00,
2013-10-13 19:49:00,50.1,35.4,30.39,NW,312,0.0,0.0,57,0.00,,,0.00,Wunderground v.1.15,2013-10-14 00:49:00,
2013-10-13 19:54:00,50.0,35.4,30.40,NW,312,0.0,0.0,57,0.00,,,0.00,Wunderground v.1.15,2013-10-14 00:54:00,
2013-10-13 19:59:00,50.0,35.4,30.39,NW,312,0.0,0.0,57,0.00,,,0.00,Wunderground v.1.15,2013-10-14 00:59:00,
2013-10-13 20:04:00,49.9,35.3,30.40,NW,312,0.0,0.0,57,0.00,,,0.00,Wunderground v.1.15,2013-10-14 01:04:00,
2013-10-13 20:09:00,49.8,35.2,30.40,NW,312,0.0,0.0,57,0.00,,,0.00,Wunderground v.1.15,2013-10-14 01:09:00,
2013-10-13 20:14:00,49.7,35.1,30.39,NW,312,0.0,0.0,57,0.00,,,0.00,Wunderground v.1.15,2013-10-14 01:14:00,
2013-10-13 20:19:00,49.7,35.1,30.40,WNW,301,0.0,0.0,57,0.00,,,0.00,Wunderground v.1.15,2013-10-14 01:19:00,
2013-10-13 20:24:00,49.7,35.5,30.40,WNW,301,0.0,0.0,58,0.00,,,0.00,Wunderground v.1.15,2013-10-14 01:24:00,
2013-10-13 20:29:00,49.7,35.9,30.40,WNW,301,0.0,0.0,59,0.00,,,0.00,Wunderground v.1.15,2013-10-14 01:29:00,
2013-10-13 20:34:00,49.6,35.8,30.40,WNW,301,0.0,0.0,59,0.00,,,0.00,Wunderground v.1.15,2013-10-14 01:34:00,
2013-10-13 20:39:00,49.6,35.4,30.40,WNW,301,0.0,0.0,58,0.00,,,0.00,Wunderground v.1.15,2013-10-14 01:39:00,
2013-10-13 20:44:00,49.4,35.2,30.40,WNW,301,0.0,0.0,58,0.00,,,0.00,Wunderground v.1.15,2013-10-14 01:44:00,
2013-10-13 20:49:00,49.4,35.2,30.40,WNW,301,0.0,0.0,58,0.00,,,0.00,Wunderground v.1.15,2013-10-14 01:49:00,
2013-10-13 20:54:00,49.3,34.7,30.40,WNW,301,0.0,0.0,57,0.00,,,0.00,Wunderground v.1.15,2013-10-14 01:54:00,
2013-10-13 20:59:00,49.4,34.8,30.40,WNW,301,0.0,0.0,57,0.00,,,0.00,Wunderground v.1.15,2013-10-14 01:59:00,
2013-10-13 21:04:00,49.3,34.7,30.40,WNW,301,0.0,0.0,57,0.00,,,0.00,Wunderground v.1.15,2013-10-14 02:04:00,
2013-10-13 21:09:00,49.4,34.8,30.40,WNW,301,0.0,0.0,57,0.00,,,0.00,Wunderground v.1.15,2013-10-14 02:09:00,
2013-10-13 21:15:00,49.5,35.3,30.40,WNW,301,0.0,0.0,58,0.00,,,0.00,Wunderground v.1.15,2013-10-14 02:15:00,
2013-10-13 21:20:00,49.3,35.1,30.40,WNW,301,0.0,0.0,58,0.00,,,0.00,Wunderground v.1.15,2013-10-14 02:20:00,
2013-10-13 21:25:00,49.1,34.9,30.40,WNW,301,0.0,0.0,58,0.00,,,0.00,Wunderground v.1.15,2013-10-14 02:25:00,
2013-10-13 21:30:00,48.9,35.2,30.40,WNW,301,0.0,0.0,59,0.00,,,0.00,Wunderground v.1.15,2013-10-14 02:30:00,
2013-10-13 21:35:00,48.7,35.0,30.40,WNW,301,0.0,0.0,59,0.00,,,0.00,Wunderground v.1.15,2013-10-14 02:35:00,
2013-10-13 21:40:00,48.5,34.8,30.39,WNW,301,0.0,0.0,59,0.00,,,0.00,Wunderground v.1.15,2013-10-14 02:40:00,
2013-10-13 21:45:00,48.4,34.7,30.40,WNW,301,0.0,0.0,59,0.00,,,0.00,Wunderground v.1.15,2013-10-14 02:45:00,
2013-10-13 21:50:00,48.2,35.0,30.40,WNW,301,0.0,0.0,60,0.00,,,0.00,Wunderground v.1.15,2013-10-14 02:50:00,
2013-10-13 21:55:00,48.1,34.9,30.40,WNW,301,0.0,0.0,60,0.00,,,0.00,Wunderground v.1.15,2013-10-14 02:55:00,
2013-10-13 22:00:00,47.9,34.7,30.40,WNW,301,0.0,0.0,60,0.00,,,0.00,Wunderground v.1.15,2013-10-14 03:00:00,
2013-10-13 22:05:00,47.9,34.7,30.40,WNW,301,0.0,0.0,60,0.00,,,0.00,Wunderground v.1.15,2013-10-14 03:05:00,
2013-10-13 22:10:00,47.9,34.7,30.40,WNW,301,0.0,0.0,60,0.00,,,0.00,Wunderground v.1.15,2013-10-14 03:10:00,
2013-10-13 22:15:00,48.0,34.8,30.40,WNW,301,0.0,0.0,60,0.00,,,0.00,Wunderground v.1.15,2013-10-14 03:15:00,
2013-10-13 22:20:00,48.1,34.9,30.40,WNW,301,0.0,0.0,60,0.00,,,0.00,Wunderground v.1.15,2013-10-14 03:20:00,
2013-10-13 22:25:00,48.3,34.6,30.40,WNW,301,0.0,0.0,59,0.00,,,0.00,Wunderground v.1.15,2013-10-14 03:25:00,
2013-10-13 22:30:00,48.4,34.7,30.40,WNW,301,0.0,0.0,59,0.00,,,0.00,Wunderground v.1.15,2013-10-14 03:30:00,
2013-10-13 22:35:00,48.5,34.8,30.40,WNW,301,0.0,0.0,59,0.00,,,0.00,Wunderground v.1.15,2013-10-14 03:35:00,
2013-10-13 22:40:00,48.5,34.4,30.41,WNW,301,0.0,0.0,58,0.00,,,0.00,Wunderground v.1.15,2013-10-14 03:40:00,
2013-10-13 22:45:00,48.6,34.5,30.41,WNW,301,0.0,0.0,58,0.00,,,0.00,Wunderground v.1.15,2013-10-14 03:45:00,
2013-10-13 22:50:00,48.6,34.5,30.41,WNW,301,0.0,0.0,58,0.00,,,0.00,Wunderground v.1.15,2013-10-14 03:50:00,
2013-10-13 22:55:00,48.5,34.4,30.41,WNW,301,0.0,0.0,58,0.00,,,0.00,Wunderground v.1.15,2013-10-14 03:55:00,
2013-10-13 23:00:00,48.3,34.6,30.41,WNW,301,0.0,0.0,59,0.00,,,0.00,Wunderground v.1.15,2013-10-14 04:00:00,
2013-10-13 23:01:00,48.2,34.5,30.41,WNW,301,0.0,0.0,59,0.00,,,0.00,Wunderground v.1.15,2013-10-14 04:01:00,
2013-10-13 23:06:00,48.1,34.4,30.41,WNW,301,0.0,0.0,59,0.00,,,0.00,Wunderground v.1.15,2013-10-14 04:06:00,
2013-10-13 23:11:00,48.2,34.1,30.42,WNW,301,0.0,0.0,58,0.00,,,0.00,Wunderground v.1.15,2013-10-14 04:11:00,
2013-10-13 23:16:00,48.3,34.2,30.42,WNW,301,0.0,0.0,58,0.00,,,0.00,Wunderground v.1.15,2013-10-14 04:16:00,
2013-10-13 23:21:00,48.4,34.3,30.42,North,349,0.0,0.0,58,0.00,,,0.00,Wunderground v.1.15,2013-10-14 04:21:00,
2013-10-13 23:26:00,48.3,34.2,30.42,North,349,0.0,0.0,58,0.00,,,0.00,Wunderground v.1.15,2013-10-14 04:26:00,
2013-10-13 23:31:00,48.3,34.2,30.42,North,349,0.0,0.0,58,0.00,,,0.00,Wunderground v.1.15,2013-10-14 04:31:00,
2013-10-13 23:36:00,48.3,34.2,30.42,North,349,0.0,0.0,58,0.00,,,0.00,Wunderground v.1.15,2013-10-14 04:36:00,
2013-10-13 23:41:00,48.3,34.6,30.42,North,349,0.0,0.0,59,0.00,,,0.00,Wunderground v.1.15,2013-10-14 04:41:00,
2013-10-13 23:46:00,48.3,34.6,30.42,North,349,0.0,0.0,59,0.00,,,0.00,Wunderground v.1.15,2013-10-14 04:46:00,
2013-10-13 23:51:00,48.2,34.5,30.41,North,349,0.0,0.0,59,0.00,,,0.00,Wunderground v.1.15,2013-10-14 04:51:00,
2013-10-13 23:56:00,48.2,34.5,30.41,North,349,0.0,0.0,59,0.00,,,0.00,Wunderground v.1.15,2013-10-14 04:56:00,